Regional Weather Roundup
Issued by NWS

Home | Current Version | Previous Version | Text Only | Print | Product List | Glossary On
Versions: 1 2 3 4 5 6 7 8 9 10 11 12 13 14 15 16 17 18 19 20 21 22 23 24 25 26 27 28 29 30 31 32 33 34 35 36 37 38 39 40 41 42 43 44 45 46 47 48 49 50
000
ASUS44 KOUN 221100
RWROK

WEATHER ROUNDUP FOR OKLAHOMA
NATIONAL WEATHER SERVICE NORMAN OK
600 AM CDT SUN OCT 22 2017

NOTE: "FAIR" INDICATES FEW OR NO CLOUDS BELOW 12,000 FEET WITH NO
      SIGNIFICANT WEATHER AND/OR OBSTRUCTIONS TO VISIBILITY.

OKZ001>007-009>012-014-015-017-221200-
NORTHWEST OKLAHOMA AND THE PANHANDLE

CITY           SKY/WX    TMP DP  RH WIND       PRES   REMARKS
GAGE           CLEAR     36  32  85 W7        30.21R WCI  30
GUYMON         CLEAR     39  23  52 W8        30.24R WCI  33
$$

OKZ016-021>023-033>039-044-045-221200-
SOUTHWEST OKLAHOMA

CITY           SKY/WX    TMP DP  RH WIND       PRES   REMARKS
LAWTON/REGL    CLOUDY    54  51  90 N9        30.13R
LAWTON/FT SILL PTCLDY    53  51  94 N12       30.11R
CLINTON        CLEAR     47  37  68 NW12      30.19R
HOBART         CLEAR     46  41  82 N7        30.17R
ALTUS AFB      CLEAR     49  39  68 W8        30.17R
$$

OKZ018>020-024>031-221200-
CENTRAL OKLAHOMA

CITY           SKY/WX    TMP DP  RH WIND       PRES   REMARKS
OKLAHOMA CITY  PTCLDY    50  48  93 N10       30.11R
OKC/WILEY POST CLEAR     52  50  93 NW8       30.11R
OKC/TINKER AFB PTCLDY    50  48  93 NW8       30.10R
STILLWATER     CLEAR     50  47  89 NW8       30.10S
GUTHRIE        PTCLDY    51  49  92 VRB5      30.11S
$$

OKZ008-013-054>072-221200-
NORTHEAST OKLAHOMA

CITY           SKY/WX    TMP DP  RH WIND       PRES   REMARKS
TULSA          CLOUDY    54  52  93 NW8       30.06R
TULSA/JONES    CLOUDY    54  51  90 N6        30.06S
PONCA CITY     CLEAR     49  47  93 NW3       30.11R
BARTLESVILLE   CLOUDY    52  49  89 CALM      30.10R
MUSKOGEE       CLOUDY    56  55  97 NW13      30.04R
$$

OKZ032-040>043-046>053-073>077-221200-
SOUTH CENTRAL/SOUTHEAST OKLAHOMA

CITY           SKY/WX    TMP DP  RH WIND       PRES   REMARKS
MCALESTER      CLOUDY    61  58  90 W5        30.04R
$$




USA.gov is the U.S. government's official web portal to all federal, state and local government web resources and services.